Visibility
15.0 15.0 10.5 5.1 6.5 6.6 13.3 7.6 14.5 15.0 5.6 15.0 14.6 9.5 12.4 15.0 15.0 15.0 15.0 15.0 15.0 15.0 15.0 15.0 15.0 15.0 15.0 15.0 15.0 15.0 15.0 15.0 15.0 15.0 15.0 15.0 15.0 15.0 15.0 15.0 15.0 15.0 15.0
15.0 11.8 5.7 5.3 6.6 5.1 11.2 15.0 14.9 15.0 3.4 15.0 15.0 15.0 14.9 8.2 14.9 8.9 15.0 15.0 15.0 15.0 15.0 15.0 15.0 15.0 15.0 15.0 15.0 15.0 15.0 15.0 15.0 15.0 15.0 15.0 15.0 15.0 15.0 15.0 15.0 15.0 15.0
15.0 15.0 13.2 6.9 4.4 10.6 8.9 11.9 5.9 2.8 12.3 15.0 15.0 10.7 15.0 13.3 9.9 15.0 15.0 15.0 15.0 15.0 15.0 15.0 15.0 15.0 15.0 15.0 15.0 15.0 15.0 15.0 15.0 15.0 15.0 15.0 15.0 15.0 15.0 15.0 15.0 15.0 15.0
15.0 15.0 15.0 5.7 9.9 6.2 4.8 7.7 15.0 10.6 15.0 15.0 15.0 11.7 13.7 13.2 15.0 15.0 15.0 15.0 15.0 15.0 15.0 15.0 15.0 15.0 15.0 15.0 15.0 15.0 15.0 15.0 15.0 15.0 15.0 15.0 15.0 15.0 15.0 15.0 15.0 15.0 15.0
15.0 15.0 15.0 15.0 15.0 13.8 11.3 15.0 15.0 15.0 15.0 15.0 7.2 14.3 14.1 15.0 15.0 15.0 15.0 15.0 15.0 15.0 15.0 15.0 15.0 15.0 15.0 15.0 15.0 15.0 15.0 15.0 15.0 15.0 15.0 15.0 15.0 15.0 15.0 15.0 15.0 15.0 15.0
15.0 15.0 15.0 15.0 15.0 15.0 15.0 15.0 15.0 15.0 15.0 15.0 13.0 15.0 14.9 15.0 15.0 15.0 15.0 15.0 15.0 15.0 15.0 15.0 15.0 15.0 15.0 15.0 15.0 15.0 15.0 15.0 6.7 15.0 15.0 15.0 15.0 15.0 15.0 15.0 15.0 15.0 15.0
15.0 15.0 15.0 15.0 15.0 15.0 15.0 15.0 15.0 15.0 13.9 12.3 13.9 11.5 15.0 14.6 15.0 15.0 15.0 15.0 15.0 15.0 15.0 15.0 15.0 15.0 15.0 15.0 15.0 15.0 15.0 15.0 15.0 15.0 15.0 15.0 15.0 15.0 15.0 15.0 15.0 15.0 15.0
15.0 15.0 15.0 15.0 15.0 15.0 15.0 15.0 14.0 15.0 8.8 5.5 15.0 15.0 15.0 15.0 15.0 15.0 15.0 15.0 15.0 15.0 15.0 15.0 15.0 15.0 15.0 15.0 15.0 15.0 15.0 15.0 15.0 15.0 15.0 15.0 15.0 15.0 15.0 15.0 11.6 8.1 15.0
15.0 15.0 15.0 15.0 15.0 15.0 15.0 15.0 9.5 14.5 15.0 15.0 15.0 15.0 15.0 15.0 15.0 15.0 15.0 15.0 15.0 15.0 15.0 15.0 15.0 15.0 15.0 15.0 15.0 15.0 15.0 15.0 15.0 15.0 15.0 15.0 15.0 15.0 15.0 15.0 9.9 12.3 15.0
15.0 15.0 15.0 15.0 15.0 11.9 14.2 15.0 15.0 15.0 15.0 15.0 15.0 15.0 15.0 15.0 15.0 15.0 15.0 15.0 15.0 15.0 15.0 15.0 15.0 15.0 15.0 15.0 15.0 15.0 13.8 15.0 15.0 15.0 15.0 15.0 15.0 15.0 15.0 15.0 15.0 8.3 13.2
15.0 15.0 15.0 15.0 15.0 15.0 15.0 15.0 15.0 15.0 15.0 15.0 15.0 15.0 15.0 15.0 15.0 15.0 15.0 15.0 15.0 15.0 15.0 15.0 15.0 15.0 15.0 15.0 15.0 15.0 10.9 15.0 15.0 15.0 15.0 15.0 15.0 15.0 15.0 15.0 15.0 15.0 14.3
15.0 15.0 15.0 15.0 15.0 15.0 15.0 15.0 15.0 15.0 15.0 15.0 15.0 15.0 15.0 15.0 15.0 15.0 15.0 15.0 15.0 10.4 15.0 15.0 15.0 15.0 15.0 15.0 15.0 15.0 15.0 15.0 15.0 15.0 15.0 15.0 15.0 15.0 15.0 15.0 15.0 15.0 15.0
15.0 15.0 15.0 15.0 15.0 15.0 15.0 15.0 15.0 15.0 15.0 15.0 15.0 15.0 15.0 15.0 15.0 15.0 15.0 15.0 15.0 15.0 6.9 10.9 15.0 15.0 15.0 15.0 15.0 15.0 15.0 0.5 0.1 1.9 14.8 15.0 15.0 15.0 14.8 15.0 15.0 15.0 15.0
15.0 15.0 15.0 15.0 15.0 15.0 15.0 15.0 15.0 15.0 15.0 15.0 15.0 15.0 15.0 15.0 15.0 15.0 15.0 15.0 14.8 6.8 14.9 1.7 0.0 0.2 0.3 5.6 10.3 0.6 1.9 0.5 2.9 1.1 14.4 14.9 13.5 15.0 15.0 15.0 15.0 15.0 15.0
15.0 15.0 15.0 15.0 15.0 15.0 15.0 15.0 15.0 15.0 15.0 15.0 15.0 14.8 7.5 10.6 9.1 12.0 9.0 10.8 15.0 15.0 12.7 6.5 0.5 0.8 0.1 2.4 0.2 8.1 10.2 3.5 0.2 3.5 0.3 11.8 14.8 15.0 15.0 15.0 15.0 15.0 15.0
15.0 15.0 15.0 15.0 15.0 15.0 15.0 15.0 15.0 15.0 15.0 15.0 15.0 15.0 15.0 15.0 15.0 15.0 15.0 15.0 15.0 15.0 7.7 3.4 0.3 1.5 0.1 0.2 0.3 11.8 15.0 7.0 4.6 10.6 0.3 0.5 1.1 9.4 14.4 12.0 15.0 15.0 15.0
15.0 15.0 15.0 15.0 15.0 15.0 15.0 15.0 15.0 15.0 15.0 15.0 15.0 15.0 15.0 15.0 15.0 15.0 15.0 15.0 15.0 15.0 3.3 11.9 1.9 0.7 0.4 0.2 0.2 3.6 14.9 12.0 2.8 0.5 4.8 4.2 0.5 14.4 11.0 14.6 10.5 10.8 15.0
15.0 15.0 15.0 15.0 15.0 15.0 15.0 15.0 15.0 15.0 15.0 15.0 15.0 15.0 15.0 15.0 15.0 15.0 15.0 15.0 15.0 9.8 1.1 8.3 2.2 1.1 0.1 0.1 0.9 0.8 12.9 13.1 0.7 0.2 1.0 2.2 1.3 15.0 3.2 15.0 14.6 14.0 15.0
15.0 15.0 15.0 15.0 15.0 15.0 15.0 15.0 15.0 15.0 15.0 15.0 15.0 15.0 15.0 15.0 15.0 15.0 15.0 7.0 0.4 0.9 0.4 1.8 0.1 0.1 0.2 4.2 3.1 1.8 0.6 0.1 0.2 0.2 0.8 0.7 6.9 12.5 7.5 15.0 14.1 15.0 14.0
15.0 15.0 15.0 15.0 15.0 15.0 15.0 15.0 15.0 15.0 15.0 15.0 15.0 15.0 15.0 15.0 15.0 13.9 15.0 5.4 3.8 4.7 0.2 0.2 0.2 0.5 0.2 0.2 0.6 0.2 0.3 0.5 0.3 0.5 0.6 0.3 11.1 15.0 15.0 15.0 15.0 13.5 15.0
15.0 15.0 15.0 15.0 15.0 15.0 15.0 15.0 15.0 15.0 15.0 15.0 15.0 15.0 15.0 9.4 5.8 10.4 8.3 8.7 4.2 1.8 1.6 0.7 0.2 0.3 0.7 0.2 0.2 0.2 0.5 0.3 0.2 0.4 0.5 0.8 13.3 15.0 15.0 15.0 15.0 15.0 15.0
15.0 15.0 15.0 15.0 15.0 15.0 15.0 15.0 15.0 15.0 15.0 15.0 15.0 15.0 15.0 15.0 15.0 15.0 11.0 8.3 4.9 4.8 0.5 0.3 0.1 0.1 0.2 0.2 0.2 0.1 0.2 0.2 0.4 0.1 0.2 0.3 10.2 15.0 13.1 2.6 7.7 15.0 15.0
15.0 15.0 15.0 15.0 15.0 15.0 15.0 15.0 15.0 15.0 15.0 15.0 15.0 15.0 15.0 14.3 10.5 13.5 4.9 8.5 13.3 6.6 5.3 0.7 0.2 0.2 0.1 0.2 0.2 0.2 0.1 0.2 0.1 0.1 0.1 0.1 2.3 4.8 2.9 3.5 9.8 15.0 15.0
15.0 15.0 15.0 15.0 15.0 15.0 15.0 15.0 15.0 15.0 15.0 15.0 15.0 15.0 15.0 15.0 12.6 14.3 10.7 14.9 15.0 14.8 15.0 2.9 0.3 0.2 0.2 0.5 1.6 1.0 0.4 0.1 0.1 0.1 0.1 0.1 0.2 4.2 0.4 0.5 2.8 15.0 15.0
15.0 15.0 15.0 15.0 13.0 13.0 14.9 15.0 15.0 15.0 15.0 15.0 15.0 14.8 15.0 15.0 15.0 15.0 15.0 15.0 15.0 15.0 15.0 13.5 1.3 0.2 0.3 0.3 2.1 0.9 1.4 0.4 0.1 0.1 0.1 0.1 0.1 0.2 0.2 0.2 0.5 10.5 15.0
15.0 15.0 15.0 15.0 14.2 10.9 11.2 14.7 15.0 15.0 14.6 12.4 13.0 15.0 10.4 12.0 15.0 15.0 15.0 13.3 15.0 13.0 14.8 14.1 14.1 1.9 0.2 0.4 10.5 3.8 2.3 3.7 0.1 0.1 0.1 0.1 0.1 0.1 0.1 0.1 0.2 2.4 15.0